Flag for Western Sahara Weather past 2 weeks in El Aaiún, Western Sahara

Now
64 °F

Overcast.


Feels Like: 64 °F
Forecast: 64 / 74 °F
Wind: 16 mph from Northeast

Location: Laayoune/Hassan Isl

Current Time: May 23, 2015 at 3:02:09 AM

Latest Report: May 23, 2015 at 2:00 AM


Visibility: 5 mi

Pressure: 30.09 "Hg

Humidity: 73%

Dew point: 55 °F

Location of El AaiúnLocation

Historic Weather in El Aaiún — Graph

°F

El Aaiún temperature yesterday

Maximum temperature yesterday: 73 °F (at 2:00 PM)
Minimum temperature yesterday: 63 °F (at 4:00 AM)
Average temperature yesterday: 68 °F

Past Weeks' High & Low Weather Summary

 TemperatureHumidityPressure
High115 °F (May 14, 3:00 PM)88% (May 10, 5:00 AM)30.15 "Hg (May 10, 5:00 AM)
Low63 °F (May 9, 5:00 AM)3% (May 13, 1:00 PM)29.83 "Hg (May 13, 5:00 PM)
Average75 °F57%30.01 "Hg
* Reported May 8 2:00 AM — May 23 2:00 AM, El Aaiún, Weather by CustomWeather, © 2015

Note: Actual official high and low records may vary slightly from our data, if they occured in-between our weather recording intervals... More about our weather records

Advertising

El Aaiún weather history for previous 24 hours

 ConditionsComfort  
Time TempWeatherWind HumidityBarometerVisibility
2:00 AM
Sat, May 23
64 °FOvercast.16 mph73%30.09 "Hg5 mi
1:00 AM64 °FOvercast.20 mph68%30.12 "Hg5 mi
12:00 AM66 °FOvercast.18 mph73%30.12 "Hg5 mi
11:00 PM
Fri, May 22
66 °FOvercast.18 mph68%30.12 "Hg5 mi
10:00 PM66 °FPassing clouds.21 mph73%30.09 "Hg5 mi
9:00 PM66 °FPartly sunny.20 mph73%30.09 "Hg5 mi
8:00 PM68 °FScattered clouds.25 mph69%30.07 "HgN/A
7:00 PM70 °FScattered clouds.25 mph64%30.07 "HgN/A
6:00 PM72 °FScattered clouds.23 mph61%30.07 "HgN/A
5:00 PM73 °FScattered clouds.25 mph53%30.07 "HgN/A
4:00 PM73 °FScattered clouds.23 mph53%30.07 "HgN/A
3:00 PM73 °FPartly sunny.23 mph53%30.09 "HgN/A
2:00 PM73 °FPartly sunny.22 mph57%30.09 "HgN/A
1:00 PM72 °FPartly sunny.21 mph57%30.09 "HgN/A
12:00 PM72 °FPartly sunny.22 mph57%30.09 "HgN/A
11:00 AM70 °FPartly sunny.20 mph60%30.12 "Hg5 mi
10:00 AM68 °FPartly sunny.17 mph64%30.12 "HgN/A
9:00 AM66 °FPartly sunny.15 mph73%30.09 "HgN/A
8:00 AM63 °FPassing clouds.10 mph83%30.09 "Hg5 mi
7:00 AM63 °FPassing clouds.16 mph83%30.07 "Hg5 mi
6:00 AM63 °FPassing clouds.17 mph73%30.09 "Hg4 mi
4:00 AM63 °FPassing clouds.21 mph73%30.12 "Hg4 mi
3:00 AM64 °FPassing clouds.18 mph68%30.12 "Hg5 mi
Weather by CustomWeather, © 2015

See weather overviewHow to use our weather pages